Location: Byszew
(52.1813°N, 19.2693°E)
Time: 19:21:00
(UTC+00:00)

OPS 6432 - Pass Details

Date: 03 March 2021
Orbit: 369 x 1714 km, 63.3° (Epoch: 30 March)

Event Time Altitude Azimuth Distance (km) Brightness Sun altitude
Rises 16:15:14 0° 173° (S) 3,129 8.7 0.8°
Reaches altitude 10° 16:19:15 10° 143° (SE) 1,911 7.3 0.2°
Drops below altitude 10° 16:22:13 10° 99° (E) 1,716 6.8 -0.2°
Enters shadow 16:25:13 - 65° (ENE) 2,393 7.4 -0.7°
Exits shadow 16:50:26 -54° 27° (NNE) 11,326 11.3 -4.5°
Maximum altitude 18:09:40 87° 140° (SE) 476 4.4 -16.6°
